EW6129 Weather Reports


Display with metric or nautical units.
time (UTC)temp
F
wind
direction
speed
MPH
gust
MPH
rain 1hr
in
rain 24hr
in
rain mn
in
humidity
%
barometer
mb
20260502195618 57 347 1.0 4.0 0.00 0.00 0.00 82 1014.2
20260502194717 57 325 0.0 2.0 0.00 0.00 0.00 82 1014.2
20260502193816 58 325 0.0 3.0 0.00 0.00 0.00 81 1014.2
20260502192703 58 326 1.0 3.0 0.00 0.00 0.00 80 1014.2
20260502191803 59 327 2.0 4.0 0.00 0.00 0.00 80 1014.3
20260502190903 59 319 2.0 4.0 0.00 0.00 0.00 79 1014.2
20260502190003 59 318 2.0 4.0 0.00 0.00 0.00 79 1014.2
20260502185403 60 321 2.0 6.0 0.00 0.00 0.00 79 1014.3
20260502184503 61 316 2.0 6.0 0.00 0.00 0.00 79 1014.2
20260502183603 61 315 2.0 5.0 0.00 0.00 0.00 78 1014.2
20260502181803 63 318 3.0 8.0 0.00 0.00 0.00 74 1014.4
20260502181118 63 313 3.0 8.0 0.00 0.00 0.00 70 1014.4
20260502163817 70 258 3.0 8.0 0.00 0.00 0.00 56 1014.9
20260502162703 70 242 3.0 9.0 0.00 0.00 0.00 61 1014.9
20260502161804 71 243 4.0 11.0 0.00 0.00 0.00 62 1015.1
20260502160903 70 245 4.0 10.0 0.00 0.00 0.00 64 1015.1
20260502151803 70 247 6.0 11.0 0.00 0.00 0.00 66 1015.3
20260502150903 70 247 5.0 12.0 0.00 0.00 0.00 68 1015.4
20260502123603 72 220 6.0 14.0 0.00 0.00 0.00 62 1016.0
20260502122917 71 229 5.0 10.0 0.00 0.00 0.00 62 1016.0
20260502121803 71 222 5.0 11.0 0.00 0.00 0.00 64 1016.1
20260502120903 70 214 5.0 12.0 0.00 0.00 0.00 64 1016.0
20260502115403 69 231 5.0 15.0 0.00 0.00 0.00 65 1016.5
20260502114503 70 235 4.0 14.0 0.00 0.00 0.00 65 1016.5
20260502113603 68 232 5.0 10.0 0.00 0.00 0.00 67 1016.5
20260502112703 67 230 4.0 10.0 0.00 0.00 0.00 68 1016.6
20260502111803 65 229 3.0 7.0 0.00 0.00 0.00 68 1016.7
20260502110903 64 237 3.0 6.0 0.00 0.00 0.00 67 1016.7
20260502110217 64 239 3.0 7.0 0.00 0.00 0.00 68 1016.7
20260502105403 63 236 3.0 7.0 0.00 0.00 0.00 67 1016.7
20260502104504 62 235 3.0 6.0 0.00 0.00 0.00 65 1016.6
20260502103603 62 232 3.0 6.0 0.00 0.00 0.00 64 1016.7
20260502102703 62 221 2.0 5.0 0.00 0.00 0.00 64 1016.7
20260502101117 62 160 2.0 6.0 0.00 0.00 0.00 62 1016.9
20260502090903 65 203 5.0 12.0 0.00 0.00 0.00 57 1016.8
20260502090218 65 200 4.0 9.0 0.00 0.00 0.00 57 1016.8
20260502070903 61 180 4.0 12.0 0.00 0.00 0.00 55 1016.8
20260502070004 60 158 4.0 9.0 0.00 0.00 0.00 57 1016.8
20260502065403 59 135 3.0 8.0 0.00 0.00 0.00 57 1016.7
20260502064503 59 133 2.0 4.0 0.00 0.00 0.00 58 1016.7
20260502063603 58 154 2.0 7.0 0.00 0.00 0.00 58 1016.6
20260502062703 57 147 2.0 7.0 0.00 0.00 0.00 59 1016.7
20260502061803 57 156 3.0 8.0 0.00 0.00 0.00 59 1016.7
20260502060903 56 169 3.0 7.0 0.00 0.00 0.00 60 1016.8
20260502060003 56 164 3.0 7.0 0.00 0.00 0.00 59 1016.9
20260502055403 55 158 3.0 7.0 0.00 0.00 0.00 60 1016.8
20260502054503 55 162 4.0 8.0 0.00 0.00 0.00 61 1016.9
20260502053603 54 155 3.0 8.0 0.00 0.00 0.00 62 1016.9
20260502052703 54 155 3.0 6.0 0.00 0.00 0.00 62 1016.9
20260502051803 53 158 3.0 7.0 0.00 0.00 0.00 63 1016.9
20260502050903 53 160 3.0 6.0 0.00 0.00 0.00 63 1017.0
20260502050004 52 159 3.0 8.0 0.00 0.00 0.00 63 1017.0
20260502045403 52 156 3.0 8.0 0.00 0.00 0.00 64 1017.0
20260502044504 52 154 3.0 7.0 0.00 0.00 0.00 64 1017.0
20260502043603 52 147 3.0 7.0 0.00 0.00 0.00 64 1017.0
20260502042703 52 159 3.0 7.0 0.00 0.00 0.00 64 1017.1
20260502041803 52 151 3.0 7.0 0.00 0.00 0.00 63 1017.1
20260502040903 52 150 4.0 7.0 0.00 0.00 0.00 65 1017.1
20260502040004 52 151 3.0 6.0 0.00 0.00 0.00 64 1017.1
20260502035403 52 150 3.0 6.0 0.00 0.00 0.00 64 1017.2
20260502034503 52 148 3.0 6.0 0.00 0.00 0.00 64 1017.2
20260502033816 52 149 3.0 6.0 0.00 0.00 0.00 65 1017.3
20260502032703 52 150 3.0 5.0 0.00 0.00 0.00 66 1017.4
20260502031803 52 149 2.0 4.0 0.00 0.00 0.00 67 1017.4
20260502030903 52 158 2.0 5.0 0.00 0.00 0.00 67 1017.5
20260502030218 52 152 2.0 5.0 0.00 0.00 0.00 67 1017.6
20260502025403 52 145 2.0 5.0 0.00 0.00 0.00 67 1017.5
20260502024503 53 148 3.0 5.0 0.00 0.00 0.00 67 1017.6
20260502023603 53 143 2.0 5.0 0.00 0.00 0.00 67 1017.7
20260502022703 53 139 2.0 5.0 0.00 0.00 0.00 68 1017.8
20260502022017 53 138 2.0 5.0 0.00 0.00 0.00 68 1017.9
20260502020903 53 146 1.0 4.0 0.00 0.00 0.00 70 1017.9
20260502020004 53 146 1.0 3.0 0.00 0.00 0.00 70 1018.0
20260502015403 53 149 2.0 6.0 0.00 0.00 0.00 70 1018.0
20260502014503 53 150 1.0 3.0 0.00 0.00 0.00 70 1018.1
20260502013603 53 152 1.0 5.0 0.00 0.00 0.00 69 1018.2
20260502012703 53 149 2.0 3.0 0.00 0.00 0.00 68 1018.3
20260502012016 53 141 2.0 3.0 0.00 0.00 0.00 68 1018.4
20260502010903 54 140 1.0 3.0 0.00 0.00 0.00 67 1018.5
20260502010004 53 141 1.0 3.0 0.00 0.00 0.00 68 1018.6
20260502005403 53 141 1.0 2.0 0.00 0.00 0.00 68 1018.7
20260502004503 53 141 0.0 2.0 0.00 0.00 0.00 68 1018.9
20260502003603 54 141 0.0 2.0 0.00 0.00 0.00 68 1019.0
20260502002703 54 141 1.0 3.0 0.00 0.00 0.00 67 1019.0
20260502001803 55 142 1.0 3.0 0.00 0.00 0.00 68 1019.1
20260502000903 55 142 1.0 2.0 0.00 0.00 0.00 68 1019.1
20260502000004 55 0 0.0 0.0 0.00 0.00 0.00 67 1019.2
20260501235403 55 142 0.0 2.0 0.00 0.00 0.00 67 1019.2
20260501234503 55 142 1.0 2.0 0.00 0.00 0.00 66 1019.3
20260501233603 55 142 1.0 2.0 0.00 0.00 0.00 66 1019.5
20260501232703 55 142 1.0 2.0 0.00 0.00 0.00 66 1019.4
20260501231803 55 142 1.0 2.0 0.00 0.00 0.00 66 1019.3
20260501230903 55 142 0.0 2.0 0.00 0.00 0.00 65 1019.4
20260501230003 56 142 0.0 2.0 0.00 0.00 0.00 65 1019.5
20260501225403 56 142 0.0 2.0 0.00 0.00 0.00 64 1019.5
20260501224503 57 142 1.0 2.0 0.00 0.00 0.00 61 1019.6
20260501213603 60 143 1.0 4.0 0.00 0.00 0.00 55 1020.0
20260501212703 60 144 1.0 3.0 0.00 0.00 0.00 55 1020.0
20260501211803 60 147 1.0 4.0 0.00 0.00 0.00 55 1020.1
20260501210903 60 148 1.0 3.0 0.00 0.00 0.00 55 1020.1
20260501210003 60 149 1.0 3.0 0.00 0.00 0.00 56 1020.3
20260501205403 60 149 1.0 3.0 0.00 0.00 0.00 56 1020.3
20260501204503 60 150 1.0 2.0 0.00 0.00 0.00 58 1020.3
20260501203603 60 150 1.0 2.0 0.00 0.00 0.00 57 1020.5
20260501202703 60 150 1.0 2.0 0.00 0.00 0.00 58 1020.4
20260501201803 60 150 0.0 2.0 0.00 0.00 0.00 58 1020.5
20260501200903 60 150 1.0 2.0 0.00 0.00 0.00 60 1020.5
20260501200003 60 149 0.0 2.0 0.00 0.00 0.00 58 1020.5